contact:dominique.lefevre@mio.osupytheas.fr, maurice.libes@osupytheas.fr, didier.mallarino@osupytheas.fr
Project:EMSO http://www.emso-fr.org/EMSO-France
Depth: 2436.0 m
Title:EMSO Ligure Ouest : Data MII capteur AQUADOPP
Date,Latitude,Longitude,X_East,Y_North,Z_Up,Amplitude_X,Amplitude_Y,Amplitude_Z,Batterie,SoundSpeed,Heading,Pitch,Roll,Pressure,TIS,Speed,Direction
, degrees North, degrees East, m.s-1, m.s-1,m.s-1, 1, 1, 1, Volt, m.s-1, degree, degree, degree, dbar, degree_C, m.s-1, degree
2023-09-16T00:01:03,42.805,6.029,-0.023,0.016,-0.048,102.0,102.0,101.0,13.3,1505.2,345.4,-0.8,1.8,2471.437,13.29,0.028,304.8
2023-09-16T00:04:03,42.805,6.029,-0.021,-0.015,-0.077,102.0,102.0,101.0,13.3,1505.2,339.0,-0.8,1.8,2471.427,13.29,0.025,234.5
2023-09-16T00:07:03,42.805,6.029,-0.016,0.017,-0.036,102.0,102.0,101.0,13.4,1505.2,348.2,-0.7,1.8,2471.45,13.29,0.023,316.7
2023-09-16T00:10:03,42.805,6.029,-0.018,-0.006,-0.013,103.0,100.0,100.0,13.4,1505.2,327.8,-0.8,1.8,2471.459,13.29,0.018,251.6
2023-09-16T00:13:03,42.805,6.029,0.003,0.001,-0.056,103.0,102.0,101.0,13.3,1505.2,325.3,-0.8,1.8,2471.442,13.29,0.003,71.6
2023-09-16T00:16:03,42.805,6.029,-0.048,0.019,-0.052,101.0,102.0,101.0,13.4,1505.2,339.4,-0.8,1.8,2471.438,13.29,0.051,291.6
2023-09-16T00:19:03,42.805,6.029,-0.035,0.01,-0.039,103.0,100.0,101.0,13.3,1505.2,356.8,-0.7,1.8,2471.455,13.29,0.036,285.9
2023-09-16T00:22:03,42.805,6.029,-0.023,-0.003,-0.054,103.0,101.0,101.0,13.4,1505.2,353.9,-0.7,1.8,2471.415,13.29,0.023,262.6
2023-09-16T00:25:03,42.805,6.029,-0.009,-0.003,-0.011,103.0,100.0,102.0,13.4,1505.2,326.8,-0.7,1.8,2471.42,13.29,0.009,251.6
2023-09-16T00:28:03,42.805,6.029,-0.034,0.02,-0.04,102.0,102.0,101.0,13.4,1505.2,348.0,-0.8,1.8,2471.443,13.29,0.039,300.5
2023-09-16T00:31:03,42.805,6.029,-0.027,0.044,0.007,102.0,103.0,100.0,13.3,1505.2,346.8,-0.8,1.8,2471.441,13.29,0.051,328.5
2023-09-16T00:34:03,42.805,6.029,-0.022,0.006,-0.052,102.0,101.0,101.0,13.4,1505.2,331.5,-0.8,1.8,2471.44,13.29,0.022,285.3
2023-09-16T00:37:03,42.805,6.029,-0.033,0.006,-0.032,100.0,103.0,102.0,13.4,1505.2,336.4,-0.8,1.8,2471.43,13.29,0.033,280.3
2023-09-16T00:40:03,42.805,6.029,-0.025,0.006,-0.038,102.0,102.0,101.0,13.4,1505.2,332.5,-0.7,1.8,2471.451,13.29,0.025,283.5
2023-09-16T00:43:03,42.805,6.029,-0.033,0.033,-0.028,101.0,102.0,102.0,13.4,1505.2,352.6,-0.8,1.8,2471.413,13.29,0.046,315.0
2023-09-16T00:46:03,42.805,6.029,-0.014,0.0,-0.027,102.0,102.0,101.0,13.4,1505.2,334.4,-0.8,1.8,2471.419,13.29,0.014,270.0
2023-09-16T00:49:03,42.805,6.029,-0.03,-0.003,-0.026,101.0,102.0,101.0,13.4,1505.2,349.1,-0.8,1.8,2471.422,13.29,0.03,264.3
2023-09-16T00:52:03,42.805,6.029,-0.03,0.015,-0.02,103.0,101.0,102.0,13.4,1505.2,340.8,-0.8,1.8,2471.419,13.29,0.033,296.6
2023-09-16T00:55:03,42.805,6.029,-0.029,0.007,-0.037,101.0,103.0,101.0,13.4,1505.2,333.0,-0.8,1.8,2471.435,13.29,0.029,283.6
2023-09-16T00:58:03,42.805,6.029,-0.035,-0.002,-0.023,101.0,102.0,101.0,13.4,1505.2,336.5,-0.8,1.8,2471.421,13.29,0.035,266.7
2023-09-16T02:04:02,42.805,6.029,0.001,-0.006,-0.04,103.0,101.0,101.0,13.4,1505.1,333.8,-0.8,1.8,2471.921,13.27,0.006,170.5
2023-09-16T02:07:03,42.805,6.029,-0.034,0.018,-0.03,102.0,102.0,102.0,13.4,1505.2,326.3,-0.8,1.8,2471.801,13.28,0.038,297.9
2023-09-16T02:10:03,42.805,6.029,-0.033,0.015,-0.019,102.0,102.0,101.0,13.4,1505.2,340.4,-0.8,1.8,2471.736,13.28,0.036,294.4
2023-09-16T02:13:03,42.805,6.029,-0.017,0.009,-0.018,101.0,101.0,102.0,13.4,1505.2,339.3,-0.8,1.8,2471.646,13.28,0.019,297.9
2023-09-16T02:16:03,42.805,6.029,-0.041,0.026,-0.031,102.0,103.0,101.0,13.4,1505.2,345.9,-0.8,1.8,2471.59,13.29,0.048,302.4
2023-09-16T02:19:03,42.805,6.029,-0.021,0.015,-0.01,102.0,102.0,101.0,13.3,1505.2,344.6,-0.8,1.8,2471.521,13.29,0.025,305.5
2023-09-16T02:22:03,42.805,6.029,-0.02,-0.001,-0.031,103.0,101.0,101.0,13.4,1505.2,335.9,-0.8,1.8,2471.514,13.29,0.02,267.1
2023-09-16T02:25:03,42.805,6.029,-0.045,-0.005,-0.045,102.0,101.0,102.0,13.3,1505.2,352.1,-0.7,1.9,2471.466,13.29,0.045,263.7
2023-09-16T02:28:03,42.805,6.029,-0.008,0.024,-0.007,102.0,103.0,101.0,13.3,1505.2,354.7,-0.7,1.8,2471.466,13.29,0.025,341.6
2023-09-16T02:31:03,42.805,6.029,-0.025,0.009,-0.002,102.0,104.0,102.0,13.4,1505.2,329.0,-0.8,1.8,2471.45,13.29,0.026,289.8
2023-09-16T02:34:03,42.805,6.029,-0.024,0.023,-0.029,103.0,102.0,101.0,13.3,1505.2,345.4,-0.7,1.8,2471.425,13.29,0.033,313.8
2023-09-16T02:37:03,42.805,6.029,-0.027,0.03,-0.041,103.0,104.0,100.0,13.4,1505.2,357.9,-0.8,1.8,2471.401,13.29,0.04,318.0
2023-09-16T02:40:03,42.805,6.029,-0.034,0.007,-0.034,101.0,101.0,101.0,13.3,1505.2,325.3,-0.8,1.8,2471.416,13.29,0.034,281.6
2023-09-16T02:43:03,42.805,6.029,-0.035,0.034,-0.014,101.0,102.0,102.0,13.4,1505.2,332.9,-0.8,1.8,2471.416,13.29,0.048,314.2
2023-09-16T02:46:03,42.805,6.029,-0.019,0.021,-0.031,103.0,101.0,101.0,13.3,1505.2,348.6,-0.8,1.8,2471.356,13.29,0.028,317.9
2023-09-16T02:49:03,42.805,6.029,-0.023,0.015,-0.022,102.0,102.0,101.0,13.3,1505.2,327.0,-0.8,1.8,2471.407,13.29,0.027,303.1
2023-09-16T02:52:03,42.805,6.029,-0.024,0.028,0.005,104.0,102.0,101.0,13.4,1505.2,342.5,-0.8,1.8,2471.41,13.29,0.036,319.4
2023-09-16T02:55:03,42.805,6.029,-0.001,0.007,-0.045,102.0,101.0,102.0,13.3,1505.2,349.2,-0.8,1.8,2471.378,13.29,0.007,351.9
2023-09-16T02:58:03,42.805,6.029,-0.028,0.0,-0.041,103.0,100.0,101.0,13.4,1505.2,338.6,-0.8,1.8,2471.381,13.29,0.028,270.0
2023-09-16T03:04:03,42.805,6.029,-0.046,0.01,-0.027,102.0,103.0,102.0,13.3,1505.2,344.5,-0.8,1.8,2471.457,13.29,0.047,282.3
2023-09-16T03:07:03,42.805,6.029,-0.018,0.014,-0.03,104.0,103.0,101.0,13.4,1505.2,347.8,-0.8,1.8,2471.413,13.29,0.022,307.9
2023-09-16T03:10:03,42.805,6.029,-0.018,-0.01,-0.014,102.0,103.0,102.0,13.4,1505.2,331.6,-0.7,1.8,2471.445,13.29,0.02,240.9
2023-09-16T03:13:03,42.805,6.029,-0.016,0.014,-0.024,102.0,102.0,102.0,13.3,1505.2,342.4,-0.8,1.8,2471.435,13.29,0.021,311.2
2023-09-16T03:16:03,42.805,6.029,-0.028,0.013,-0.054,103.0,102.0,102.0,13.3,1505.2,340.6,-0.7,1.8,2471.424,13.29,0.03,294.9
2023-09-16T03:19:03,42.805,6.029,-0.002,0.031,-0.014,103.0,101.0,102.0,13.4,1505.2,337.6,-0.8,1.8,2471.43,13.29,0.031,356.3
2023-09-16T03:22:03,42.805,6.029,-0.027,0.009,-0.025,103.0,103.0,101.0,13.4,1505.2,340.1,-0.8,1.8,2471.421,13.29,0.028,288.4
2023-09-16T03:25:03,42.805,6.029,-0.021,0.026,-0.014,104.0,102.0,101.0,13.4,1505.2,341.2,-0.8,1.8,2471.425,13.29,0.033,321.1
2023-09-16T03:28:03,42.805,6.029,-0.019,-0.011,-0.025,104.0,102.0,101.0,13.3,1505.2,326.5,-0.8,1.8,2471.391,13.29,0.021,239.9
2023-09-16T03:31:03,42.805,6.029,-0.048,0.014,-0.021,104.0,102.0,101.0,13.3,1505.2,340.9,-0.8,1.8,2471.4,13.29,0.05,286.3
2023-09-16T03:34:03,42.805,6.029,-0.026,0.012,-0.016,103.0,102.0,101.0,13.4,1505.2,350.2,-0.8,1.8,2471.4,13.29,0.028,294.8
2023-09-16T03:37:03,42.805,6.029,-0.01,0.007,-0.035,103.0,103.0,103.0,13.4,1505.2,337.5,-0.8,1.8,2471.434,13.29,0.012,305.0
2023-09-16T03:40:03,42.805,6.029,-0.026,0.004,-0.02,103.0,102.0,102.0,13.4,1505.2,345.0,-0.7,1.8,2471.397,13.29,0.026,278.7
2023-09-16T03:43:03,42.805,6.029,-0.018,0.0,-0.018,103.0,103.0,102.0,13.4,1505.2,330.6,-0.8,1.8,2471.434,13.29,0.018,270.0
2023-09-16T03:46:03,42.805,6.029,-0.019,0.003,-0.035,102.0,102.0,102.0,13.3,1505.2,346.2,-0.8,1.8,2471.383,13.29,0.019,279.0
2023-09-16T03:49:03,42.805,6.029,-0.01,0.016,-0.017,102.0,102.0,101.0,13.4,1505.2,337.6,-0.8,1.8,2471.428,13.29,0.018,328.0
2023-09-16T03:52:03,42.805,6.029,-0.022,0.01,-0.017,102.0,103.0,101.0,13.4,1505.2,334.4,-0.8,1.8,2471.383,13.29,0.024,294.4
2023-09-16T03:55:03,42.805,6.029,-0.016,0.015,-0.033,104.0,102.0,102.0,13.3,1505.2,351.8,-0.8,1.8,2471.394,13.29,0.021,313.1
2023-09-16T03:58:03,42.805,6.029,-0.014,0.018,-0.027,104.0,102.0,101.0,13.4,1505.2,336.1,-0.8,1.8,2471.418,13.29,0.022,322.1
2023-09-16T04:04:03,42.805,6.029,-0.032,0.002,-0.031,102.0,103.0,102.0,13.4,1505.2,325.7,-0.8,1.8,2471.475,13.29,0.032,273.6
2023-09-16T04:07:03,42.805,6.029,-0.023,0.004,-0.033,103.0,102.0,101.0,13.3,1505.2,333.8,-0.8,1.8,2471.44,13.29,0.023,279.9
2023-09-16T04:10:03,42.805,6.029,-0.033,0.01,0.001,103.0,103.0,101.0,13.4,1505.2,335.9,-0.8,1.8,2471.459,13.29,0.034,286.9
2023-09-16T04:13:03,42.805,6.029,-0.015,0.021,-0.003,103.0,103.0,102.0,13.4,1505.2,340.3,-0.8,1.8,2471.422,13.29,0.025,324.5
2023-09-16T04:16:03,42.805,6.029,-0.025,0.004,-0.01,104.0,102.0,104.0,13.4,1505.2,343.7,-0.8,1.8,2471.425,13.29,0.025,279.1
2023-09-16T04:19:03,42.805,6.029,-0.045,0.004,-0.042,104.0,103.0,102.0,13.4,1505.2,324.7,-0.7,1.8,2471.45,13.29,0.045,275.1
2023-09-16T04:22:03,42.805,6.029,-0.001,0.028,0.008,103.0,102.0,102.0,13.4,1505.2,347.0,-0.8,1.9,2471.439,13.29,0.028,358.0
2023-09-16T04:25:03,42.805,6.029,-0.041,0.03,-0.029,104.0,103.0,102.0,13.4,1505.2,356.7,-0.8,1.8,2471.433,13.29,0.05,306.2
2023-09-16T04:28:03,42.805,6.029,-0.017,0.004,-0.041,103.0,103.0,101.0,13.4,1505.2,329.9,-0.8,1.8,2471.428,13.29,0.017,283.2
2023-09-16T04:31:03,42.805,6.029,-0.015,0.019,-0.014,103.0,103.0,102.0,13.3,1505.2,336.3,-0.8,1.8,2471.428,13.29,0.024,321.7
2023-09-16T04:34:03,42.805,6.029,-0.023,-0.008,0.0,103.0,103.0,102.0,13.4,1505.2,334.2,-0.8,1.8,2471.445,13.29,0.024,250.8
2023-09-16T04:37:03,42.805,6.029,-0.005,0.006,-0.009,103.0,103.0,102.0,13.3,1505.2,333.4,-0.8,1.8,2471.433,13.29,0.007,320.2
2023-09-16T04:40:03,42.805,6.029,-0.005,0.022,0.012,102.0,102.0,103.0,13.4,1505.2,344.8,-0.8,1.8,2471.431,13.29,0.022,347.2
2023-09-16T04:43:03,42.805,6.029,-0.034,0.003,-0.011,103.0,104.0,102.0,13.3,1505.2,323.4,-0.8,1.8,2471.456,13.29,0.034,275.0
2023-09-16T04:46:03,42.805,6.029,-0.004,0.011,-0.009,103.0,104.0,102.0,13.4,1505.2,336.3,-0.8,1.8,2471.423,13.29,0.011,340.0
2023-09-16T04:49:03,42.805,6.029,-0.024,-0.01,-0.035,104.0,103.0,102.0,13.4,1505.2,332.2,-0.8,1.8,2471.446,13.29,0.026,247.4
2023-09-16T04:52:03,42.805,6.029,-0.024,0.004,-0.048,103.0,103.0,102.0,13.3,1505.2,338.4,-0.8,1.8,2471.454,13.29,0.024,279.5
2023-09-16T04:55:03,42.805,6.029,-0.025,0.02,0.007,103.0,103.0,102.0,13.4,1505.2,346.4,-0.8,1.8,2471.412,13.29,0.032,308.7
2023-09-16T04:58:03,42.805,6.029,-0.013,0.024,-0.015,104.0,103.0,102.0,13.4,1505.2,354.6,-0.8,1.8,2471.441,13.29,0.027,331.6
2023-09-16T05:01:03,42.805,6.029,-0.012,-0.006,-0.048,104.0,102.0,102.0,13.4,1505.2,352.3,-0.8,1.8,2471.431,13.29,0.013,243.4
2023-09-16T05:04:03,42.805,6.029,-0.013,0.01,-0.021,103.0,102.0,103.0,13.3,1505.2,327.1,-0.8,1.8,2471.452,13.29,0.016,307.6
2023-09-16T05:07:03,42.805,6.029,-0.001,0.005,-0.011,105.0,103.0,102.0,13.4,1505.2,331.9,-0.7,1.8,2471.471,13.29,0.005,348.7
2023-09-16T05:10:03,42.805,6.029,-0.033,0.007,-0.055,102.0,102.0,103.0,13.4,1505.2,339.6,-0.8,1.8,2471.461,13.29,0.033,282.0
2023-09-16T05:13:03,42.805,6.029,-0.042,-0.002,-0.018,104.0,102.0,102.0,13.3,1505.2,331.6,-0.8,1.8,2471.493,13.29,0.042,267.3
2023-09-16T05:16:03,42.805,6.029,-0.03,0.015,-0.033,103.0,104.0,102.0,13.4,1505.2,348.2,-0.7,1.8,2471.459,13.29,0.033,296.6
2023-09-16T05:19:03,42.805,6.029,0.002,0.0,-0.064,103.0,104.0,105.0,13.3,1505.2,348.2,-0.7,1.8,2471.454,13.29,0.002,90.0
2023-09-16T05:22:03,42.805,6.029,-0.015,0.011,-0.011,104.0,103.0,103.0,13.4,1505.2,343.6,-0.8,1.9,2471.46,13.29,0.018,306.3
2023-09-16T05:25:03,42.805,6.029,0.0,0.004,-0.02,104.0,103.0,102.0,13.4,1505.2,341.9,-0.7,1.8,2471.471,13.29,0.004,0.0
2023-09-16T05:28:03,42.805,6.029,-0.021,0.005,-0.014,104.0,103.0,102.0,13.3,1505.2,329.1,-0.8,1.8,2471.493,13.29,0.021,283.4
2023-09-16T05:31:03,42.805,6.029,-0.004,0.004,0.0,103.0,103.0,102.0,13.4,1505.2,338.0,-0.8,1.8,2471.491,13.29,0.005,315.0
2023-09-16T05:34:03,42.805,6.029,-0.033,0.008,-0.04,103.0,103.0,103.0,13.4,1505.2,340.4,-0.7,1.8,2471.476,13.29,0.033,283.6
2023-09-16T05:37:03,42.805,6.029,-0.024,0.01,-0.002,105.0,102.0,102.0,13.4,1505.2,326.0,-0.8,1.8,2471.477,13.29,0.026,292.6
2023-09-16T05:40:03,42.805,6.029,-0.018,-0.003,-0.032,104.0,104.0,102.0,13.4,1505.2,344.2,-0.8,1.8,2471.482,13.29,0.018,260.5
2023-09-16T05:43:03,42.805,6.029,-0.03,0.01,0.003,104.0,102.0,103.0,13.3,1505.2,329.1,-0.8,1.8,2471.488,13.29,0.031,288.4
2023-09-16T05:46:03,42.805,6.029,-0.005,0.012,-0.011,103.0,104.0,102.0,13.4,1505.2,335.7,-0.8,1.8,2471.496,13.29,0.013,337.4
2023-09-16T05:49:03,42.805,6.029,-0.004,0.005,-0.014,109.0,104.0,102.0,13.4,1505.2,349.1,-0.8,1.8,2471.512,13.29,0.006,321.3
2023-09-16T05:52:03,42.805,6.029,-0.015,0.0,-0.003,105.0,102.0,102.0,13.3,1505.2,334.6,-0.7,1.8,2471.486,13.29,0.015,270.0
2023-09-16T05:55:03,42.805,6.029,-0.012,0.007,-0.03,104.0,103.0,103.0,13.4,1505.2,342.9,-0.7,1.8,2471.509,13.29,0.013,300.3
2023-09-16T05:58:03,42.805,6.029,-0.004,0.015,-0.021,104.0,104.0,103.0,13.4,1505.2,355.6,-0.7,1.8,2471.528,13.29,0.015,345.1
2023-09-16T06:04:03,42.805,6.029,-0.014,0.016,0.012,104.0,102.0,102.0,13.4,1505.2,332.9,-0.8,1.8,2471.528,13.29,0.021,318.8
2023-09-16T06:07:03,42.805,6.029,-0.004,0.01,-0.008,104.0,102.0,103.0,13.3,1505.2,325.8,-0.8,1.8,2471.6,13.29,0.01,338.2
2023-09-16T06:10:03,42.805,6.029,-0.009,0.007,-0.024,104.0,104.0,102.0,13.4,1505.2,333.8,-0.8,1.8,2471.535,13.29,0.011,307.9
2023-09-16T06:13:03,42.805,6.029,-0.013,0.0,-0.041,103.0,104.0,102.0,13.4,1505.2,333.9,-0.7,1.8,2471.547,13.29,0.013,270.0
2023-09-16T06:16:03,42.805,6.029,-0.012,0.011,-0.032,104.0,103.0,103.0,13.4,1505.2,352.0,-0.8,1.8,2471.539,13.29,0.016,312.5
2023-09-16T06:19:03,42.805,6.029,-0.031,-0.004,-0.017,104.0,102.0,102.0,13.4,1505.2,328.4,-0.8,1.8,2471.494,13.29,0.031,262.7
2023-09-16T06:22:03,42.805,6.029,0.013,0.001,-0.041,104.0,103.0,103.0,13.4,1505.2,345.1,-0.8,1.8,2471.518,13.29,0.013,85.6
2023-09-16T06:25:03,42.805,6.029,0.0,0.002,-0.027,104.0,104.0,102.0,13.3,1505.2,347.9,-0.8,1.8,2471.516,13.29,0.002,0.0
2023-09-16T06:28:03,42.805,6.029,-0.007,0.024,-0.023,105.0,103.0,102.0,13.4,1505.2,352.1,-0.8,1.8,2471.533,13.29,0.025,343.7
2023-09-16T06:31:03,42.805,6.029,-0.032,0.013,0.0,104.0,103.0,102.0,13.4,1505.2,327.8,-0.8,1.8,2471.578,13.29,0.034,292.1
2023-09-16T06:34:03,42.805,6.029,-0.01,0.015,-0.011,104.0,103.0,102.0,13.4,1505.2,343.7,-0.8,1.8,2471.507,13.29,0.018,326.3
2023-09-16T06:37:03,42.805,6.029,-0.015,-0.023,-0.047,103.0,103.0,103.0,13.4,1505.2,326.8,-0.8,1.8,2471.559,13.29,0.027,213.1
2023-09-16T06:40:03,42.805,6.029,-0.026,0.005,-0.014,104.0,104.0,102.0,13.3,1505.2,334.2,-0.8,1.8,2471.533,13.29,0.026,280.9
2023-09-16T06:43:03,42.805,6.029,-0.008,0.001,-0.001,104.0,103.0,103.0,13.4,1505.2,346.8,-0.8,1.8,2471.531,13.29,0.008,277.1
2023-09-16T06:46:03,42.805,6.029,-0.023,0.033,0.005,104.0,104.0,102.0,13.4,1505.2,333.8,-0.8,1.8,2471.527,13.29,0.04,325.1
2023-09-16T06:49:03,42.805,6.029,-0.015,0.008,-0.027,104.0,104.0,102.0,13.4,1505.2,346.5,-0.8,1.8,2471.55,13.29,0.017,298.1
2023-09-16T06:52:03,42.805,6.029,-0.025,0.013,-0.008,103.0,103.0,102.0,13.4,1505.2,335.1,-0.8,1.8,2471.561,13.29,0.028,297.5
2023-09-16T06:55:03,42.805,6.029,-0.028,0.0,-0.045,103.0,102.0,103.0,13.4,1505.2,337.9,-0.8,1.8,2471.559,13.29,0.028,270.0
2023-09-16T06:58:03,42.805,6.029,-0.02,0.029,0.008,104.0,105.0,101.0,13.4,1505.2,338.6,-0.8,1.8,2471.549,13.29,0.035,325.4
2023-09-16T07:04:03,42.805,6.029,-0.018,0.021,-0.016,104.0,105.0,103.0,13.4,1505.2,350.3,-0.8,1.8,2471.597,13.29,0.027,319.4
2023-09-16T07:07:03,42.805,6.029,-0.03,-0.009,-0.031,104.0,103.0,102.0,13.4,1505.2,334.6,-0.8,1.8,2471.619,13.29,0.031,253.3
2023-09-16T07:10:03,42.805,6.029,-0.015,0.008,-0.012,104.0,104.0,102.0,13.3,1505.2,329.5,-0.8,1.9,2471.619,13.29,0.017,298.1
2023-09-16T07:13:03,42.805,6.029,-0.019,0.02,-0.025,104.0,104.0,102.0,13.3,1505.2,341.2,-0.8,1.8,2471.593,13.29,0.027,316.5
2023-09-16T07:16:03,42.805,6.029,-0.021,0.027,-0.011,105.0,103.0,102.0,13.4,1505.2,340.3,-0.8,1.8,2471.591,13.29,0.034,322.1
2023-09-16T07:19:03,42.805,6.029,-0.016,0.005,-0.033,104.0,104.0,102.0,13.4,1505.2,334.7,-0.8,1.8,2471.563,13.29,0.016,287.4
2023-09-16T07:22:03,42.805,6.029,-0.015,0.002,-0.022,103.0,104.0,103.0,13.4,1505.2,332.9,-0.7,1.8,2471.586,13.29,0.015,277.6
2023-09-16T07:25:03,42.805,6.029,-0.003,0.028,-0.02,103.0,104.0,102.0,13.4,1505.2,345.1,-0.8,1.8,2471.556,13.29,0.028,353.9
2023-09-16T07:28:03,42.805,6.029,-0.009,0.001,-0.034,104.0,103.0,103.0,13.4,1505.2,353.2,-0.7,1.8,2471.591,13.29,0.009,276.3
2023-09-16T07:31:03,42.805,6.029,-0.026,-0.004,-0.043,102.0,104.0,102.0,13.4,1505.2,328.3,-0.8,1.8,2471.558,13.29,0.026,261.3
2023-09-16T07:34:03,42.805,6.029,-0.04,-0.006,-0.029,104.0,103.0,103.0,13.4,1505.2,333.9,-0.8,1.8,2471.512,13.29,0.04,261.5
2023-09-16T07:37:03,42.805,6.029,-0.036,0.007,-0.042,104.0,104.0,102.0,13.3,1505.2,337.8,-0.8,1.8,2471.583,13.29,0.036,281.0
2023-09-16T07:40:03,42.805,6.029,-0.034,0.025,-0.023,103.0,103.0,102.0,13.3,1505.2,335.3,-0.8,1.8,2471.573,13.29,0.042,306.3
2023-09-16T07:43:03,42.805,6.029,-0.023,0.003,-0.004,104.0,104.0,102.0,13.4,1505.2,347.6,-0.7,1.8,2471.538,13.29,0.023,277.4
2023-09-16T07:46:03,42.805,6.029,-0.001,-0.029,-0.013,104.0,103.0,103.0,13.4,1505.2,327.0,-0.8,1.8,2471.534,13.29,0.029,182.0
2023-09-16T07:49:03,42.805,6.029,-0.01,0.011,-0.022,104.0,103.0,102.0,13.3,1505.2,342.4,-0.8,1.8,2471.594,13.29,0.014,317.7
2023-09-16T07:52:03,42.805,6.029,-0.032,0.019,-0.041,104.0,103.0,102.0,13.4,1505.2,353.8,-0.8,1.8,2471.554,13.29,0.037,300.7
2023-09-16T07:55:03,42.805,6.029,-0.017,0.038,-0.02,104.0,104.0,102.0,13.3,1505.2,349.8,-0.7,1.8,2471.521,13.29,0.041,335.9
2023-09-16T07:58:03,42.805,6.029,-0.049,0.024,-0.02,104.0,104.0,102.0,13.3,1505.2,326.3,-0.7,1.8,2471.558,13.29,0.054,296.1
2023-09-16T08:04:03,42.805,6.029,-0.015,-0.002,-0.038,104.0,104.0,103.0,13.3,1505.2,345.6,-0.8,1.8,2471.613,13.29,0.015,262.4
2023-09-16T08:07:03,42.805,6.029,-0.026,0.002,-0.046,104.0,103.0,102.0,13.4,1505.2,323.4,-0.8,1.8,2471.596,13.29,0.026,274.4
2023-09-16T08:10:03,42.805,6.029,-0.022,-0.009,-0.033,105.0,103.0,102.0,13.4,1505.2,334.7,-0.8,1.8,2471.601,13.29,0.023,247.8
2023-09-16T08:13:03,42.805,6.029,-0.019,0.022,-0.021,104.0,104.0,101.0,13.4,1505.2,334.7,-0.8,1.8,2471.59,13.29,0.029,319.2
2023-09-16T08:16:03,42.805,6.029,-0.012,0.011,-0.012,104.0,104.0,102.0,13.4,1505.2,342.3,-0.7,1.8,2471.549,13.29,0.016,312.5
2023-09-16T08:19:03,42.805,6.029,-0.025,0.017,-0.026,105.0,103.0,102.0,13.3,1505.2,346.9,-0.8,1.8,2471.591,13.29,0.03,304.2
2023-09-16T08:22:03,42.805,6.029,-0.027,-0.013,-0.026,104.0,105.0,102.0,13.4,1505.2,332.5,-0.7,1.8,2471.616,13.29,0.029,244.3
2023-09-16T08:25:03,42.805,6.029,-0.023,0.026,0.001,104.0,105.0,101.0,13.4,1505.2,343.6,-0.7,1.8,2471.571,13.29,0.034,318.5
2023-09-16T08:28:03,42.805,6.029,-0.004,0.021,-0.023,104.0,105.0,102.0,13.3,1505.2,346.4,-0.8,1.8,2471.542,13.29,0.021,349.2
2023-09-16T08:31:03,42.805,6.029,-0.014,0.015,-0.011,104.0,104.0,103.0,13.4,1505.2,329.3,-0.8,1.8,2471.599,13.29,0.02,317.0
2023-09-16T08:34:03,42.805,6.029,-0.02,0.002,-0.013,103.0,103.0,102.0,13.3,1505.2,333.4,-0.8,1.8,2471.551,13.29,0.02,275.7
2023-09-16T08:37:03,42.805,6.029,-0.026,0.013,-0.035,103.0,103.0,102.0,13.4,1505.2,333.9,-0.7,1.8,2471.599,13.29,0.029,296.6
2023-09-16T08:40:03,42.805,6.029,0.006,0.005,-0.02,104.0,104.0,102.0,13.4,1505.2,340.8,-0.8,1.8,2471.568,13.29,0.007,50.2
2023-09-16T08:43:03,42.805,6.029,-0.005,0.001,-0.014,103.0,104.0,102.0,13.3,1505.2,351.1,-0.8,1.8,2471.581,13.29,0.005,281.3
2023-09-16T08:46:03,42.805,6.029,-0.01,0.017,-0.01,103.0,104.0,102.0,13.4,1505.2,345.9,-0.7,1.8,2471.545,13.29,0.019,329.5
2023-09-16T08:49:03,42.805,6.029,0.001,0.019,0.009,104.0,104.0,102.0,13.3,1505.2,330.7,-0.7,1.8,2471.528,13.29,0.019,3.0
2023-09-16T08:52:03,42.805,6.029,0.0,0.02,0.003,104.0,103.0,102.0,13.4,1505.2,336.5,-0.8,1.8,2471.572,13.29,0.02,0.0
2023-09-16T08:55:03,42.805,6.029,-0.01,0.012,-0.033,104.0,104.0,102.0,13.3,1505.2,354.4,-0.8,1.8,2471.564,13.29,0.015,320.2
2023-09-16T08:58:03,42.805,6.029,-0.028,0.03,-0.02,104.0,104.0,102.0,13.4,1505.2,355.6,-0.8,1.8,2471.56,13.29,0.041,317.0
2023-09-16T09:04:03,42.805,6.029,-0.023,-0.008,-0.02,103.0,105.0,103.0,13.3,1505.2,332.5,-0.8,1.8,2471.611,13.29,0.024,250.8
2023-09-16T09:07:03,42.805,6.029,0.007,0.003,-0.027,104.0,104.0,103.0,13.4,1505.2,336.3,-0.8,1.8,2471.583,13.29,0.007,66.8
2023-09-16T09:10:03,42.805,6.029,-0.016,0.004,-0.026,104.0,104.0,103.0,13.3,1505.2,324.9,-0.8,1.8,2471.58,13.29,0.016,284.0
2023-09-16T09:13:03,42.805,6.029,-0.005,0.022,-0.013,104.0,104.0,103.0,13.3,1505.2,347.0,-0.7,1.8,2471.544,13.29,0.022,347.2
2023-09-16T09:16:03,42.805,6.029,-0.017,-0.007,-0.023,104.0,105.0,101.0,13.4,1505.2,348.9,-0.8,1.8,2471.578,13.29,0.018,247.6
2023-09-16T09:19:03,42.805,6.029,0.005,-0.035,-0.013,104.0,104.0,103.0,13.4,1505.2,353.9,-0.8,1.8,2471.545,13.29,0.035,171.9
2023-09-16T09:22:03,42.805,6.029,-0.019,0.013,-0.018,104.0,103.0,102.0,13.4,1505.2,331.8,-0.8,1.8,2471.536,13.29,0.023,304.4
2023-09-16T09:25:03,42.805,6.029,-0.032,0.001,-0.009,104.0,104.0,102.0,13.4,1505.2,329.0,-0.7,1.8,2471.509,13.29,0.032,271.8
2023-09-16T09:28:03,42.805,6.029,-0.021,-0.002,-0.024,104.0,104.0,102.0,13.4,1505.2,350.3,-0.7,1.8,2471.534,13.29,0.021,264.6
2023-09-16T09:31:03,42.805,6.029,-0.009,0.009,0.008,104.0,103.0,102.0,13.4,1505.2,343.4,-0.8,1.8,2471.519,13.29,0.012,315.0
2023-09-16T09:34:03,42.805,6.029,-0.017,0.027,0.001,105.0,104.0,103.0,13.4,1505.2,348.4,-0.8,1.8,2471.519,13.29,0.031,327.8
2023-09-16T09:37:03,42.805,6.029,-0.017,0.013,-0.022,104.0,104.0,102.0,13.4,1505.2,347.5,-0.8,1.8,2471.539,13.29,0.021,307.4
2023-09-16T09:40:03,42.805,6.029,-0.004,0.036,-0.003,104.0,105.0,102.0,13.3,1505.2,346.4,-0.8,1.8,2471.504,13.29,0.036,353.7
2023-09-16T09:43:03,42.805,6.029,-0.024,-0.006,-0.041,104.0,103.0,102.0,13.4,1505.2,339.0,-0.8,1.8,2471.507,13.29,0.024,256.0
2023-09-16T09:46:03,42.805,6.029,-0.024,0.023,-0.044,104.0,104.0,103.0,13.4,1505.2,349.5,-0.8,1.8,2471.518,13.29,0.033,313.8
2023-09-16T09:49:03,42.805,6.029,0.01,0.018,-0.027,105.0,103.0,104.0,13.4,1505.2,355.6,-0.8,1.8,2471.489,13.29,0.02,29.1
2023-09-16T09:52:03,42.805,6.029,-0.006,0.04,-0.008,104.0,104.0,102.0,13.4,1505.2,340.2,-0.7,1.8,2471.527,13.29,0.04,351.5
2023-09-16T09:55:03,42.805,6.029,-0.019,0.015,0.001,104.0,104.0,103.0,13.3,1505.2,340.8,-0.8,1.8,2471.53,13.29,0.024,308.3
2023-09-16T09:58:03,42.805,6.029,-0.047,0.017,-0.015,104.0,104.0,103.0,13.4,1505.2,340.8,-0.8,1.8,2471.516,13.29,0.049,289.9
2023-09-16T10:04:03,42.805,6.029,0.007,0.001,-0.028,106.0,104.0,103.0,13.3,1505.2,347.2,-0.8,1.8,2471.504,13.29,0.007,81.9
2023-09-16T10:07:03,42.805,6.029,-0.002,0.017,-0.012,104.0,105.0,102.0,13.4,1505.2,326.0,-0.8,1.8,2471.55,13.29,0.017,353.3
2023-09-16T10:10:03,42.805,6.029,-0.016,-0.02,-0.038,104.0,104.0,103.0,13.3,1505.2,341.5,-0.8,1.8,2471.552,13.29,0.025,218.7
2023-09-16T10:13:03,42.805,6.029,-0.026,0.009,-0.027,104.0,103.0,103.0,13.4,1505.2,348.4,-0.8,1.8,2471.556,13.29,0.027,289.1
2023-09-16T10:16:03,42.805,6.029,-0.018,-0.004,-0.017,103.0,104.0,103.0,13.4,1505.2,343.7,-0.7,1.8,2471.535,13.29,0.018,257.5
2023-09-16T10:19:03,42.805,6.029,0.005,0.014,-0.024,103.0,104.0,103.0,13.4,1505.2,353.5,-0.8,1.8,2471.512,13.29,0.014,19.6
2023-09-16T10:22:03,42.805,6.029,-0.02,0.015,-0.011,104.0,104.0,102.0,13.3,1505.2,346.2,-0.8,1.8,2471.515,13.29,0.025,306.9
2023-09-16T10:25:03,42.805,6.029,-0.002,0.0,-0.042,105.0,103.0,102.0,13.4,1505.2,333.4,-0.7,1.8,2471.504,13.29,0.002,270.0
2023-09-16T10:28:03,42.805,6.029,-0.018,-0.009,-0.012,103.0,104.0,104.0,13.3,1505.2,333.0,-0.7,1.8,2471.476,13.29,0.02,243.4
2023-09-16T10:31:03,42.805,6.029,0.027,0.014,0.0,105.0,104.0,102.0,13.3,1505.2,347.8,-0.8,1.8,2471.429,13.29,0.03,62.6
2023-09-16T10:34:03,42.805,6.029,0.0,0.01,-0.032,105.0,103.0,102.0,13.3,1505.2,347.7,-0.8,1.8,2471.444,13.29,0.01,0.0
2023-09-16T10:37:03,42.805,6.029,-0.018,0.013,-0.034,105.0,103.0,103.0,13.4,1505.2,338.8,-0.8,1.8,2471.496,13.29,0.022,305.8
2023-09-16T10:40:03,42.805,6.029,-0.019,-0.004,-0.056,105.0,105.0,103.0,13.3,1505.2,329.1,-0.8,1.8,2471.517,13.29,0.019,258.1
2023-09-16T10:43:03,42.805,6.029,-0.016,0.014,0.003,103.0,103.0,103.0,13.4,1505.2,346.7,-0.8,1.8,2471.466,13.29,0.021,311.2
2023-09-16T10:46:03,42.805,6.029,-0.018,0.003,0.003,104.0,103.0,102.0,13.3,1505.2,341.2,-0.8,1.8,2471.484,13.29,0.018,279.5
2023-09-16T10:49:03,42.805,6.029,0.008,-0.002,-0.008,104.0,104.0,101.0,13.4,1505.2,327.5,-0.7,1.8,2471.508,13.29,0.008,104.0